When you browse on this site, cookies collect data to enhance your experience and personalize the content and advertising you see.
Visit our Privacy Policy to learn more. By continuing to use the site, you agree to this use of cookies and data.
  • In Sweden
  • List of Countries
  • For 7 days
  • Water Temperature
  • Satellite Maps
  • Weather Map
  • Weather Widgets
  • user-avatar
    Login

    Hourly Weather La Paz

    Today, 20 January, Sunday

    Time Temperature Precipitation Wind Pressure Humidity
    00:00 +19°C° 0 mm 1 mps 699 mmHg 88%
    01:00 +19°C° 0 mm 1 mps 699 mmHg 90%
    02:00 +18°C° 0 mm 2 mps 699 mmHg 92%
    03:00 +17°C° 0 mm 2 mps 699 mmHg 94%
    04:00 +18°C° 0 mm 2 mps 699 mmHg 94%
    05:00 +19°C° 0 mm 2 mps 700 mmHg 94%
    06:00 +20°C° 0 mm 2 mps 700 mmHg 94%
    07:00 +21°C° 0 mm 3 mps 701 mmHg 88%
    08:00 +22°C° 0 mm 4 mps 701 mmHg 82%
    09:00 +23°C° 0 mm 5 mps 701 mmHg 76%
    10:00 +24°C° 0 mm 6 mps 701 mmHg 69%
    11:00 +27°C° 0 mm 6 mps 701 mmHg 63%
    12:00 +28°C° 0 mm 6 mps 701 mmHg 57%
    13:00 +27°C° 0.1 mm 6 mps 701 mmHg 60%
    14:00 +27°C° 0.1 mm 6 mps 700 mmHg 63%
    15:00 +26°C° 0.1 mm 6 mps 700 mmHg 67%
    16:00 +24°C° 0.1 mm 6 mps 700 mmHg 74%
    17:00 +22°C° 0.1 mm 5 mps 700 mmHg 81%
    18:00 +21°C° 0.1 mm 5 mps 700 mmHg 88%
    19:00 +21°C° 0.1 mm 5 mps 700 mmHg 89%
    20:00 +20°C° 0.1 mm 5 mps 701 mmHg 90%
    21:00 +20°C° 0.1 mm 5 mps 701 mmHg 91%
    22:00 +20°C° 0 mm 5 mps 701 mmHg 90%
    23:00 +20°C° 0 mm 5 mps 701 mmHg 90%

    Tomorrow, 21 January, Monday

    Time Temperature Precipitation Wind Pressure Humidity
    00:00 +20°C° 0 mm 6 mps 701 mmHg 90%
    01:00 +20°C° 0 mm 6 mps 701 mmHg 90%
    02:00 +19°C° 0 mm 5 mps 701 mmHg 90%
    03:00 +19°C° 0 mm 5 mps 700 mmHg 90%
    04:00 +19°C° 0 mm 5 mps 701 mmHg 90%
    05:00 +19°C° 0 mm 5 mps 701 mmHg 90%
    06:00 +17°C° 0 mm 5 mps 701 mmHg 89%
    07:00 +19°C° 0 mm 5 mps 701 mmHg 87%
    08:00 +19°C° 0 mm 5 mps 702 mmHg 84%
    09:00 +20°C° 0 mm 5 mps 702 mmHg 82%
    10:00 +21°C° 0 mm 5 mps 702 mmHg 78%
    11:00 +21°C° 0 mm 5 mps 702 mmHg 74%
    12:00 +22°C° 0 mm 5 mps 702 mmHg 70%
    13:00 +22°C° 0 mm 5 mps 701 mmHg 70%
    14:00 +22°C° 0 mm 5 mps 700 mmHg 70%
    15:00 +22°C° 0 mm 4 mps 700 mmHg 71%
    16:00 +21°C° 0 mm 4 mps 700 mmHg 76%
    17:00 +20°C° 0 mm 4 mps 700 mmHg 81%
    18:00 +18°C° 0 mm 3 mps 700 mmHg 87%
    19:00 +18°C° 0 mm 3 mps 700 mmHg 88%
    20:00 +18°C° 0 mm 3 mps 701 mmHg 89%
    21:00 +18°C° 0 mm 3 mps 701 mmHg 90%
    22:00 +17°C° 0 mm 3 mps 701 mmHg 91%
    23:00 +17°C° 0 mm 3 mps 701 mmHg 92%

    Day after tomorrow, 22 January, Tuesday

    Time Temperature Precipitation Wind Pressure Humidity
    00:00 +17°C° 0 mm 3 mps 701 mmHg 93%
    01:00 +17°C° 0 mm 3 mps 700 mmHg 93%
    02:00 +17°C° 0 mm 3 mps 700 mmHg 93%
    03:00 +17°C° 0 mm 3 mps 699 mmHg 92%
    04:00 +17°C° 0 mm 3 mps 700 mmHg 93%
    05:00 +17°C° 0 mm 2 mps 700 mmHg 93%
    06:00 +17°C° 0 mm 2 mps 700 mmHg 93%
    07:00 +19°C° 0 mm 2 mps 700 mmHg 86%
    08:00 +20°C° 0 mm 2 mps 701 mmHg 80%
    09:00 +23°C° 0 mm 2 mps 702 mmHg 73%
    10:00 +25°C° 0 mm 3 mps 701 mmHg 66%
    11:00 +27°C° 0 mm 3 mps 701 mmHg 60%
    12:00 +28°C° 0 mm 3 mps 701 mmHg 53%
    13:00 +29°C° 0 mm 3 mps 700 mmHg 52%
    14:00 +29°C° 0 mm 3 mps 699 mmHg 51%
    15:00 +29°C° 0 mm 3 mps 698 mmHg 50%
    16:00 +27°C° 0 mm 2 mps 698 mmHg 57%
    17:00 +25°C° 0 mm 2 mps 698 mmHg 63%
    18:00 +23°C° 0 mm 1 mps 699 mmHg 70%
    19:00 +22°C° 0 mm 1 mps 699 mmHg 76%
    20:00 +21°C° 0 mm 1 mps 699 mmHg 82%
    21:00 +20°C° 0 mm 1 mps 700 mmHg 88%
    22:00 +20°C° 0 mm 1 mps 700 mmHg 90%
    23:00 +20°C° 0 mm 1 mps 699 mmHg 92%

    23 January, Wednesday

    Time Temperature Precipitation Wind Pressure Humidity
    00:00 +19°C° 0 mm 1 mps 699 mmHg 94%
    01:00 +19°C° 0 mm 1 mps 699 mmHg 94%
    02:00 +19°C° 0 mm 1 mps 699 mmHg 94%
    03:00 +19°C° 0 mm 1 mps 698 mmHg 95%
    04:00 +18°C° 0 mm 1 mps 698 mmHg 95%
    05:00 +18°C° 0 mm 1 mps 698 mmHg 95%
    06:00 +18°C° 0 mm 1 mps 699 mmHg 95%
    07:00 +21°C° 0 mm 1 mps 699 mmHg 85%
    08:00 +23°C° 0 mm 2 mps 700 mmHg 76%
    09:00 +25°C° 0 mm 2 mps 701 mmHg 67%
    10:00 +27°C° 0 mm 2 mps 701 mmHg 59%
    11:00 +29°C° 0 mm 2 mps 700 mmHg 51%
    12:00 +31°C° 0 mm 2 mps 700 mmHg 44%
    13:00 +32°C° 0 mm 2 mps 699 mmHg 42%
    14:00 +32°C° 0 mm 2 mps 698 mmHg 41%
    15:00 +32°C° 0 mm 2 mps 698 mmHg 39%
    16:00 +30°C° 0 mm 2 mps 698 mmHg 48%
    17:00 +28°C° 0 mm 1 mps 697 mmHg 56%
    18:00 +25°C° 0 mm 1 mps 697 mmHg 64%
    19:00 +24°C° 0 mm 1 mps 698 mmHg 71%
    20:00 +23°C° 0 mm 1 mps 698 mmHg 77%
    21:00 +21°C° 0 mm 1 mps 699 mmHg 83%
    22:00 +21°C° 0 mm 1 mps 699 mmHg 87%
    23:00 +21°C° 0 mm 1 mps 699 mmHg 90%

    24 January, Thursday

    Time Temperature Precipitation Wind Pressure Humidity
    00:00 +20°C° 0 mm 1 mps 698 mmHg 93%
    01:00 +20°C° 0 mm 1 mps 698 mmHg 93%
    02:00 +20°C° 0 mm 1 mps 698 mmHg 94%
    03:00 +19°C° 0 mm 2 mps 698 mmHg 95%
    04:00 +20°C° 0.1 mm 2 mps 698 mmHg 94%
    05:00 +20°C° 0.1 mm 2 mps 699 mmHg 93%
    06:00 +20°C° 0.1 mm 2 mps 699 mmHg 92%
    07:00 +21°C° 0.1 mm 3 mps 700 mmHg 87%
    08:00 +24°C° 0.1 mm 3 mps 700 mmHg 81%
    09:00 +25°C° 0.1 mm 4 mps 701 mmHg 76%
    10:00 +25°C° 0.1 mm 4 mps 701 mmHg 74%
    11:00 +26°C° 0.1 mm 4 mps 700 mmHg 72%
    12:00 +26°C° 0.1 mm 4 mps 700 mmHg 70%
    13:00 +26°C° 0.1 mm 4 mps 699 mmHg 68%
    14:00 +26°C° 0.1 mm 4 mps 699 mmHg 67%
    15:00 +27°C° 0.1 mm 4 mps 698 mmHg 65%
    16:00 +25°C° 0 mm 3 mps 698 mmHg 71%
    17:00 +24°C° 0 mm 3 mps 698 mmHg 77%
    18:00 +22°C° 0 mm 3 mps 699 mmHg 83%
    19:00 +21°C° 0 mm 3 mps 699 mmHg 86%
    20:00 +21°C° 0 mm 3 mps 700 mmHg 90%
    21:00 +20°C° 0 mm 3 mps 700 mmHg 94%
    22:00 +20°C° 0 mm 3 mps 700 mmHg 94%
    23:00 +20°C° 0 mm 3 mps 700 mmHg 94%

    25 January, Friday

    Time Temperature Precipitation Wind Pressure Humidity
    00:00 +20°C° 0 mm 3 mps 700 mmHg 94%
    01:00 +20°C° 0 mm 3 mps 700 mmHg 93%
    02:00 +20°C° 0 mm 3 mps 699 mmHg 93%
    03:00 +20°C° 0 mm 3 mps 699 mmHg 92%
    04:00 +20°C° 0 mm 3 mps 699 mmHg 92%
    05:00 +20°C° 0 mm 3 mps 700 mmHg 92%
    06:00 +20°C° 0 mm 3 mps 700 mmHg 93%
    07:00 +21°C° 0 mm 3 mps 701 mmHg 88%
    08:00 +22°C° 0 mm 3 mps 701 mmHg 84%
    09:00 +23°C° 0 mm 4 mps 702 mmHg 80%
    10:00 +23°C° 0.1 mm 4 mps 701 mmHg 79%
    11:00 +23°C° 0.1 mm 4 mps 701 mmHg 79%
    12:00 +25°C° 0.1 mm 4 mps 701 mmHg 79%
    13:00 +23°C° 0.1 mm 4 mps 700 mmHg 78%
    14:00 +23°C° 0.1 mm 4 mps 700 mmHg 78%
    15:00 +23°C° 0.1 mm 4 mps 699 mmHg 78%
    16:00 +22°C° 0.3 mm 4 mps 700 mmHg 81%
    17:00 +21°C° 0.3 mm 4 mps 700 mmHg 85%
    18:00 +20°C° 0.3 mm 4 mps 700 mmHg 89%
    19:00 +20°C° 0.3 mm 4 mps 701 mmHg 89%
    20:00 +20°C° 0.3 mm 4 mps 701 mmHg 89%
    21:00 +20°C° 0.3 mm 4 mps 702 mmHg 89%
    22:00 +20°C° 0.3 mm 4 mps 702 mmHg 89%
    23:00 +20°C° 0.3 mm 4 mps 702 mmHg 89%
    Show more